• In Italy
  • List of Countries
  • For 7 days
  • Water Temperature
  • Satellite Maps
  • Weather Map
  • Weather Widgets
  • user-avatar
    Login

    Hourly Weather Nashavar

    Today, 20 June, Wednesday

    Time Temperature Precipitation Wind Pressure Humidity
    00:00 +35°C° 0.4 mm 1 mps 723 mmHg 40%
    01:00 +34°C° 0.4 mm 1 mps 723 mmHg 42%
    02:00 +35°C° 0.4 mm 2 mps 723 mmHg 44%
    03:00 +34°C° 0.2 mm 2 mps 723 mmHg 45%
    04:00 +34°C° 0.2 mm 2 mps 723 mmHg 47%
    05:00 +32°C° 0 mm 2 mps 723 mmHg 45%
    06:00 +34°C° 0 mm 2 mps 723 mmHg 40%
    07:00 +35°C° 0 mm 2 mps 724 mmHg 35%
    08:00 +36°C° 0 mm 2 mps 724 mmHg 29%
    09:00 +37°C° 0 mm 2 mps 724 mmHg 27%
    10:00 +38°C° 0 mm 2 mps 724 mmHg 24%
    11:00 +39°C° 0 mm 2 mps 724 mmHg 21%
    12:00 +40°C° 0 mm 2 mps 724 mmHg 20%
    13:00 +41°C° 0 mm 2 mps 723 mmHg 19%
    14:00 +42°C° 0 mm 1 mps 723 mmHg 18%
    15:00 +42°C° 0 mm 1 mps 723 mmHg 18%
    16:00 +42°C° 0 mm 1 mps 723 mmHg 18%
    17:00 +42°C° 0 mm 1 mps 722 mmHg 18%
    18:00 +41°C° 0 mm 1 mps 723 mmHg 19%
    19:00 +41°C° 0 mm 1 mps 723 mmHg 21%
    20:00 +40°C° 0 mm 1 mps 723 mmHg 23%
    21:00 +39°C° 0 mm 1 mps 723 mmHg 24%
    22:00 +37°C° 0 mm 1 mps 724 mmHg 25%
    23:00 +37°C° 0 mm 1 mps 724 mmHg 26%

    Tomorrow, 21 June, Thursday

    Time Temperature Precipitation Wind Pressure Humidity
    00:00 +36°C° 0 mm 1 mps 724 mmHg 27%
    01:00 +36°C° 0 mm 2 mps 724 mmHg 27%
    02:00 +36°C° 0 mm 2 mps 724 mmHg 27%
    03:00 +35°C° 0 mm 2 mps 724 mmHg 28%
    04:00 +34°C° 0 mm 2 mps 724 mmHg 28%
    05:00 +33°C° 0 mm 1 mps 724 mmHg 28%
    06:00 +35°C° 0 mm 2 mps 724 mmHg 25%
    07:00 +36°C° 0 mm 2 mps 724 mmHg 22%
    08:00 +37°C° 0 mm 2 mps 724 mmHg 19%
    09:00 +38°C° 0 mm 2 mps 724 mmHg 18%
    10:00 +39°C° 0 mm 2 mps 724 mmHg 16%
    11:00 +40°C° 0 mm 2 mps 724 mmHg 14%
    12:00 +41°C° 0 mm 2 mps 724 mmHg 14%
    13:00 +42°C° 0 mm 2 mps 723 mmHg 13%
    14:00 +43°C° 0 mm 2 mps 723 mmHg 13%
    15:00 +43°C° 0 mm 2 mps 723 mmHg 13%
    16:00 +43°C° 0 mm 2 mps 722 mmHg 14%
    17:00 +43°C° 0 mm 2 mps 722 mmHg 15%
    18:00 +42°C° 0 mm 2 mps 722 mmHg 17%
    19:00 +41°C° 0 mm 2 mps 723 mmHg 19%
    20:00 +40°C° 0 mm 2 mps 723 mmHg 21%
    21:00 +40°C° 0 mm 2 mps 723 mmHg 22%
    22:00 +39°C° 0 mm 2 mps 723 mmHg 23%
    23:00 +38°C° 0 mm 2 mps 723 mmHg 24%

    Day after tomorrow, 22 June, Friday

    Time Temperature Precipitation Wind Pressure Humidity
    00:00 +38°C° 0.2 mm 2 mps 723 mmHg 25%
    01:00 +37°C° 0.2 mm 2 mps 723 mmHg 27%
    02:00 +36°C° 0.2 mm 2 mps 723 mmHg 28%
    03:00 +35°C° 0.4 mm 2 mps 723 mmHg 30%
    04:00 +35°C° 0.4 mm 2 mps 723 mmHg 32%
    05:00 +34°C° 0.4 mm 2 mps 723 mmHg 33%
    06:00 +35°C° 0.2 mm 2 mps 723 mmHg 31%
    07:00 +36°C° 0.2 mm 2 mps 723 mmHg 29%
    08:00 +36°C° 0.2 mm 2 mps 724 mmHg 26%
    09:00 +38°C° 0 mm 2 mps 724 mmHg 24%
    10:00 +39°C° 0 mm 2 mps 724 mmHg 22%
    11:00 +40°C° 0 mm 2 mps 724 mmHg 20%
    12:00 +41°C° 0 mm 2 mps 723 mmHg 20%
    13:00 +42°C° 0 mm 2 mps 723 mmHg 19%
    14:00 +42°C° 0 mm 2 mps 723 mmHg 18%
    15:00 +42°C° 0.2 mm 2 mps 722 mmHg 19%
    16:00 +42°C° 0.2 mm 2 mps 722 mmHg 20%
    17:00 +42°C° 0.2 mm 2 mps 722 mmHg 20%
    18:00 +41°C° 0.1 mm 2 mps 722 mmHg 22%
    19:00 +40°C° 0.1 mm 2 mps 722 mmHg 25%
    20:00 +39°C° 0.1 mm 2 mps 723 mmHg 27%
    21:00 +38°C° 0.1 mm 3 mps 723 mmHg 29%
    22:00 +37°C° 0.1 mm 3 mps 723 mmHg 31%
    23:00 +36°C° 0.1 mm 4 mps 723 mmHg 32%

    23 June, Saturday

    Time Temperature Precipitation Wind Pressure Humidity
    00:00 +36°C° 0.3 mm 3 mps 723 mmHg 35%
    01:00 +35°C° 0.3 mm 3 mps 723 mmHg 37%
    02:00 +34°C° 0.3 mm 3 mps 722 mmHg 39%
    03:00 +34°C° 0.1 mm 3 mps 722 mmHg 39%
    04:00 +32°C° 0.1 mm 2 mps 722 mmHg 39%
    05:00 +32°C° 0.1 mm 2 mps 722 mmHg 39%
    06:00 +34°C° 0 mm 2 mps 722 mmHg 35%
    07:00 +35°C° 0 mm 2 mps 723 mmHg 31%
    08:00 +37°C° 0 mm 2 mps 723 mmHg 27%
    09:00 +38°C° 0 mm 2 mps 723 mmHg 24%
    10:00 +39°C° 0 mm 2 mps 723 mmHg 22%
    11:00 +40°C° 0 mm 2 mps 723 mmHg 19%
    12:00 +41°C° 0 mm 2 mps 722 mmHg 18%
    13:00 +42°C° 0 mm 2 mps 722 mmHg 18%
    14:00 +43°C° 0 mm 2 mps 722 mmHg 17%
    15:00 +43°C° 0 mm 2 mps 721 mmHg 17%
    16:00 +43°C° 0 mm 2 mps 721 mmHg 17%
    17:00 +45°C° 0 mm 2 mps 721 mmHg 16%
    18:00 +43°C° 0 mm 2 mps 721 mmHg 18%
    19:00 +42°C° 0 mm 1 mps 721 mmHg 20%
    20:00 +41°C° 0 mm 1 mps 721 mmHg 21%
    21:00 +41°C° 0 mm 1 mps 721 mmHg 22%
    22:00 +40°C° 0 mm 1 mps 722 mmHg 23%
    23:00 +39°C° 0 mm 1 mps 722 mmHg 24%

    24 June, Sunday

    Time Temperature Precipitation Wind Pressure Humidity
    00:00 +39°C° 0 mm 2 mps 721 mmHg 24%
    01:00 +38°C° 0 mm 2 mps 721 mmHg 25%
    02:00 +37°C° 0 mm 2 mps 721 mmHg 26%
    03:00 +37°C° 0 mm 2 mps 721 mmHg 26%
    04:00 +36°C° 0 mm 2 mps 721 mmHg 27%
    05:00 +36°C° 0 mm 2 mps 721 mmHg 27%
    06:00 +37°C° 0 mm 2 mps 721 mmHg 25%
    07:00 +38°C° 0 mm 2 mps 721 mmHg 22%
    08:00 +39°C° 0 mm 2 mps 721 mmHg 20%
    09:00 +40°C° 0 mm 2 mps 721 mmHg 18%
    10:00 +41°C° 0 mm 2 mps 721 mmHg 17%
    11:00 +42°C° 0 mm 2 mps 721 mmHg 15%
    12:00 +43°C° 0 mm 2 mps 721 mmHg 14%
    13:00 +45°C° 0 mm 2 mps 720 mmHg 14%
    14:00 +45°C° 0 mm 1 mps 720 mmHg 13%
    15:00 +46°C° 0 mm 2 mps 720 mmHg 14%
    16:00 +46°C° 0 mm 2 mps 719 mmHg 14%
    17:00 +46°C° 0 mm 2 mps 719 mmHg 14%
    18:00 +45°C° 0 mm 2 mps 719 mmHg 15%
    19:00 +44°C° 0 mm 1 mps 720 mmHg 17%
    20:00 +43°C° 0 mm 1 mps 720 mmHg 18%
    21:00 +42°C° 0 mm 1 mps 720 mmHg 18%
    22:00 +41°C° 0 mm 2 mps 720 mmHg 18%
    23:00 +40°C° 0 mm 2 mps 721 mmHg 18%

    25 June, Monday

    Time Temperature Precipitation Wind Pressure Humidity
    00:00 +40°C° 0 mm 2 mps 721 mmHg 17%
    01:00 +39°C° 0 mm 3 mps 720 mmHg 16%
    02:00 +38°C° 0 mm 3 mps 720 mmHg 15%
    03:00 +37°C° 0 mm 3 mps 720 mmHg 15%
    04:00 +36°C° 0 mm 3 mps 720 mmHg 16%
    05:00 +36°C° 0 mm 3 mps 720 mmHg 16%
    06:00 +37°C° 0 mm 3 mps 720 mmHg 15%
    07:00 +38°C° 0 mm 4 mps 721 mmHg 13%
    08:00 +40°C° 0 mm 4 mps 721 mmHg 12%
    09:00 +42°C° 0 mm 4 mps 721 mmHg 11%
    10:00 +43°C° 0 mm 4 mps 721 mmHg 10%
    11:00 +45°C° 0 mm 4 mps 721 mmHg 9%
    12:00 +45°C° 0 mm 3 mps 720 mmHg 8%
    13:00 +46°C° 0 mm 3 mps 720 mmHg 8%
    14:00 +47°C° 0 mm 3 mps 719 mmHg 7%
    15:00 +47°C° 0 mm 2 mps 719 mmHg 7%
    16:00 +47°C° 0 mm 2 mps 719 mmHg 7%
    17:00 +47°C° 0 mm 2 mps 718 mmHg 8%
    18:00 +45°C° 0 mm 1 mps 719 mmHg 9%
    19:00 +44°C° 0 mm 1 mps 719 mmHg 11%
    20:00 +43°C° 0 mm 1 mps 719 mmHg 12%
    21:00 +42°C° 0 mm 1 mps 719 mmHg 13%
    22:00 +41°C° 0 mm 2 mps 719 mmHg 13%
    23:00 +40°C° 0 mm 2 mps 720 mmHg 13%
    Show more